Pine Ridge, SD

2:00 PM MDT on September 15, 2019 (GMT -0600)
Pine Ridge

Weather History for KIEN - August, 2019

Change the Weather History Date:

Saturday, August 24, 2019

  Actual Average Record
Temperature  
Mean Temperature 72 °F 70 °F  
Max Temperature 82 °F 86 °F 97 °F (2013)
Min Temperature 62 °F 54 °F 38 °F (2010)
Degree Days  
Heating Degree Days 0 1  
Month to date heating degree days 1 12  
Since 1 June heating degree days 87 111  
Since 1 July heating degree days 3 24  
Cooling Degree Days 7 6  
Month to date cooling degree days 208 203  
Year to date cooling degree days 580 611  
Since 1 June cooling degree days 577 594  
Growing Degree Days 22 (Base 50)    
Moisture  
Dew Point 58 °F    
Average Humidity 60    
Maximum Humidity 78    
Minimum Humidity 42    
Precipitation  
Precipitation 0.00 in 0.05 in 0.45 in (2007)
Month to date precipitation T 1.52  
Year to date precipitation 11.81 13.46  
Sea Level Pressure  
Sea Level Pressure 29.85 in    
Wind  
Wind Speed 13 mph (South)    
Max Wind Speed 22 mph    
Max Gust Speed 33 mph    
Visibility 10 miles    
Events      
T = Trace of Precipitation, MM = Missing Value Source: NWS Daily Summary

Daily Weather History Graph

Daily Weather History Graph

Search for Another Location

Airport or City:

Astronomy

Aug. 24, 2019 Rise Set
Actual Time 6:05 AM MDT 7:38 PM MDT
Civil Twilight 5:35 AM MDT 8:08 PM MDT
Nautical Twilight 4:59 AM MDT 8:44 PM MDT
Astronomical Twilight 4:20 AM MDT 9:22 PM MDT
Moon No Moon Rise 3:00 PM MDT (8/24)
Length of Visible Light 14h 32m
Length of Day
13h 32m
Last Quarter, 38% of the Moon is Illuminated
Aug 24
Last Quarter
Aug 30
New
Sep 5
First Quarter
Sep 13
Full
Sep 21
Last Quarter

Hourly Weather History & Observations

Time (MDT) Temp. Heat Index Dew Point Humidity Pressure Visibility Wind Dir Wind Speed Gust Speed Precip Events Conditions
12:52 AM 64.9 °F - 55.9 °F 73% 29.90 in 10.0 mi South 11.5 mph 23.0 mph N/A   Clear
1:52 AM 64.9 °F - 55.9 °F 73% 29.86 in 10.0 mi SE 8.1 mph - N/A   Clear
2:52 AM 63.0 °F - 55.9 °F 78% 29.88 in 10.0 mi South 10.4 mph - N/A   Overcast
3:52 AM 63.0 °F - 55.9 °F 78% 29.91 in 10.0 mi South 10.4 mph - N/A   Mostly Cloudy
4:52 AM 64.0 °F - 55.0 °F 73% 29.88 in 10.0 mi Calm Calm - N/A   Partly Cloudy
6:52 AM 62.1 °F - 55.9 °F 80% 29.90 in 10.0 mi SW 9.2 mph - N/A   Clear
7:52 AM 64.0 °F - 55.9 °F 75% 29.90 in 10.0 mi SSW 13.8 mph - N/A   Mostly Cloudy
8:52 AM 66.9 °F - 57.0 °F 70% 29.89 in 10.0 mi SSW 9.2 mph - N/A   Partly Cloudy
9:52 AM 72.0 °F - 59.0 °F 64% 29.88 in 10.0 mi SSW 11.5 mph 19.6 mph N/A   Clear
10:52 AM 75.0 °F - 59.0 °F 57% 29.88 in 10.0 mi South 16.1 mph 21.9 mph N/A   Clear
11:52 AM 79.0 °F - 59.0 °F 50% 29.85 in 10.0 mi South 16.1 mph 24.2 mph N/A   Partly Cloudy
12:52 PM 78.1 °F - 59.0 °F 52% 29.85 in 10.0 mi SSW 17.3 mph 25.3 mph N/A   Overcast
1:52 PM 80.1 °F 80.6 °F 57.9 °F 47% 29.83 in 10.0 mi SSW 16.1 mph 28.8 mph N/A   Scattered Clouds
2:52 PM 80.1 °F 80.1 °F 55.0 °F 42% 29.83 in 10.0 mi South 20.7 mph 31.1 mph N/A   Clear
3:52 PM 79.0 °F - 59.0 °F 50% 29.83 in 10.0 mi South 17.3 mph 26.5 mph N/A   Clear
4:52 PM 81.0 °F 81.3 °F 59.0 °F 47% 29.81 in 10.0 mi South 13.8 mph - N/A   Partly Cloudy
5:52 PM 80.1 °F 80.2 °F 55.9 °F 43% 29.81 in 10.0 mi South 13.8 mph 26.5 mph N/A   Clear
6:52 PM 78.1 °F - 57.9 °F 50% 29.81 in 10.0 mi SSE 9.2 mph - N/A   Clear
7:52 PM 75.0 °F - 57.9 °F 55% 29.81 in 10.0 mi South 11.5 mph - N/A   Clear
8:52 PM 73.0 °F - 60.1 °F 64% 29.81 in 10.0 mi South 15.0 mph - N/A   Clear
9:52 PM 71.1 °F - 60.1 °F 68% 29.82 in 10.0 mi South 12.7 mph 23.0 mph N/A   Clear
10:52 PM 70.0 °F - 61.0 °F 73% 29.79 in 10.0 mi South 15.0 mph 26.5 mph N/A   Clear
11:52 PM 69.1 °F - 61.0 °F 75% 29.77 in 10.0 mi South 16.1 mph 26.5 mph N/A   Clear